This demonstration page uses our WeatherBlox Daily Observations layout. Learn more.

Left ArrowRight Arrow

Hourly Observations for June 25, 2022

Temp ( °F °C ) Dew Point ( °F °C ) Humidity (%) Winds ( mph kmh ) Pressure ( in mb ) Visibility ( mi km ) Precip ( " mm )
12:53 am 00:53 Clear 74 23.3 40 4.4 29 29 NW 5 7 29.80 1009 10 16 0.00 0.00
1:53 am 01:53 Clear 74 23.3 42 5.6 32 32 N 5 7 29.81 1010 10 16 0.00 0.00
2:53 am 02:53 Clear 73 22.8 43 6.1 34 34 N 6 9 29.83 1010 10 16 0.00 0.00
3:53 am 03:53 Clear 72 22.2 45 7.2 38 38 N 5 7 29.83 1010 10 16 0.00 0.00
4:53 am 04:53 Clear 70 21.1 46 7.8 42 42 NW 5 7 29.84 1010 10 16 0.00 0.00
5:53 am 05:53 Sunny 65 18.3 47 8.3 52 52 Calm 29.84 1011 10 16 0.00 0.00
6:53 am 06:53 Sunny 70 21.1 48 8.9 46 46 Calm 29.85 1011 10 16 0.00 0.00
7:53 am 07:53 Sunny 76 24.4 49 9.4 39 39 Calm 29.85 1011 10 16 0.00 0.00
8:53 am 08:53 Sunny 88 31.1 38 3.3 17 17 N 12 19 29.85 1011 10 16 0.00 0.00
9:53 am 09:53 Sunny 92 33.3 38 3.3 15 15 VRB 7 11 29.84 1011 10 16 0.00 0.00
10:53 am 10:53 Sunny 95 35 37 2.8 13 13 NW 7 11 29.84 1010 10 16 0.00 0.00
11:53 am 11:53 Sunny 100 37.8 37 2.8 11 11 VRB 6 9 29.82 1010 10 16 0.00 0.00
12:53 pm 12:53 Sunny 100 37.8 36 2.2 11 11 SSW 6 9 29.81 1010 10 16 0.00 0.00
1:53 pm 13:53 Sunny 103 39.4 34 1.1 9 9 VRB 5 7 29.80 1009 10 16 0.00 0.00
2:53 pm 14:53 Sunny 105 40.6 31 -0.6 7 7 VRB 5 7 29.78 1009 10 16 0.00 0.00
3:53 pm 15:53 Sunny 106 41.1 29 -1.7 7 7 SW 9 15 29.77 1008 10 16 0.00 0.00
4:53 pm 16:53 Sunny 107 41.7 22 -5.6 5 5 S 9 15 29.76 1008 10 16 0.00 0.00
5:53 pm 17:53 Sunny 106 41.1 27 -2.8 6 6 SSE 14 22 29.75 1008 10 16 0.00 0.00
6:53 pm 18:53 Sunny 104 40 28 -2.2 7 7 SSE 16 26 29.77 1008 10 16 0.00 0.00
7:53 pm 19:53 Sunny 100 37.8 32 0 9 9 SSE 12 19 29.79 1009 10 16 0.00 0.00
8:53 pm 20:53 Clear 95 35 38 3.3 14 14 SSW 8 13 29.81 1009 10 16 0.00 0.00
9:53 pm 21:53 Clear 89 31.7 44 6.7 21 21 SE 6 9 29.83 1010 10 16 0.00 0.00
10:53 pm 22:53 Clear 84 28.9 43 6.1 24 24 N 5 7 29.85 1011 10 16 0.00 0.00
11:53 pm 23:53 Clear 80 26.7 43 6.1 27 27 NNE 3 6 29.86 1011 10 16 0.00 0.00

Powered by AerisWeather